EW5674 Weather Reports


time (UTC)temp
C
wind
direction
speed
KPH
gust
KPH
rain 1hr
cm
rain 24hr
cm
rain mn
cm
humidity
%
barometer
mb
20260506180019 8 197 3.2 20.9 0.00 0.00 0.00 47 1014.7
20260506174514 8 212 8.0 22.5 0.00 0.00 0.00 46 1014.6
20260506173010 8 212 6.4 20.9 0.00 0.00 0.00 46 1014.5
20260506171513 8 203 8.0 19.3 0.00 0.00 0.00 45 1014.4
20260506170001 8 203 4.8 19.3 0.00 0.00 0.00 46 1014.5
20260506164557 8 212 8.0 22.5 0.00 0.00 0.00 44 1014.4
20260506163057 8 212 4.8 20.9 0.00 0.00 0.00 45 1014.4
20260506161549 9 207 6.4 19.3 0.00 0.00 0.00 46 1014.3
20260506160045 10 223 4.8 20.9 0.00 0.00 0.00 45 1014.3
20260506154555 10 212 3.2 20.9 0.00 0.00 0.00 43 1014.4
20260506153035 10 203 8.0 20.9 0.00 0.00 0.00 40 1014.4
20260506151532 10 188 6.4 19.3 0.00 0.00 0.00 40 1014.5
20260506150026 10 225 4.8 17.7 0.00 0.00 0.00 41 1014.5
20260506144522 11 118 6.4 20.9 0.00 0.00 0.00 40 1014.7
20260506143024 11 207 11.3 25.7 0.00 0.00 0.00 40 1014.7
20260506141514 11 177 6.4 24.1 0.00 0.00 0.00 39 1014.7
20260506140016 11 195 6.4 20.9 0.00 0.00 0.00 38 1014.6
20260506134504 11 212 8.0 22.5 0.00 0.00 0.00 39 1014.6
20260506133000 11 242 6.4 19.3 0.00 0.00 0.00 38 1014.8
20260506131557 10 212 4.8 24.1 0.00 0.00 0.00 39 1014.9
20260506130110 10 212 8.0 19.3 0.00 0.00 0.00 38 1014.8
20260506124547 10 212 4.8 22.5 0.00 0.00 0.00 40 1014.8
20260506123044 10 212 4.8 19.3 0.00 0.00 0.00 39 1014.8
20260506121539 9 212 6.4 22.5 0.00 0.00 0.00 40 1014.8
20260506120035 8 212 4.8 16.1 0.00 0.00 0.00 40 1014.9
20260506114536 8 121 6.4 20.9 0.00 0.00 0.00 40 1014.9
20260506113026 8 212 6.4 19.3 0.00 0.00 0.00 38 1014.9
20260506111521 8 127 8.0 22.5 0.00 0.00 0.00 36 1014.9
20260506110017 8 212 4.8 19.3 0.00 0.00 0.00 34 1014.9
20260506104532 8 190 8.0 17.7 0.00 0.00 0.00 34 1014.7
20260506103009 8 212 6.4 16.1 0.00 0.00 0.00 33 1014.7
20260506101507 7 212 4.8 16.1 0.00 0.00 0.00 35 1014.7
20260506100059 7 188 4.8 12.9 0.00 0.00 0.00 35 1014.8
20260506094556 8 207 3.2 11.3 0.00 0.00 0.00 35 1014.9
20260506093051 8 212 3.2 11.3 0.00 0.00 0.00 32 1014.8
20260506091547 8 203 4.8 11.3 0.00 0.00 0.00 30 1014.9
20260506090046 7 187 4.8 16.1 0.00 0.00 0.00 28 1014.8
20260506084538 7 202 0.0 9.7 0.00 0.00 0.00 28 1014.7
20260506083040 7 212 0.0 12.9 0.00 0.00 0.00 27 1014.7
20260506081529 6 192 3.2 11.3 0.00 0.00 0.00 25 1014.7
20260506073016 6 154 1.6 9.7 0.00 0.03 0.00 14 1014.6
20260506071513 5 121 3.2 9.7 0.00 0.03 0.00 5 1014.6
20260506061555 2 189 0.0 1.6 0.00 0.03 0.00 1 1014.7
20260506044534 -1 189 0.0 0.0 0.00 0.03 0.00 1 1014.5
20260506043026 -1 189 0.0 0.0 0.00 0.03 0.00 1 1014.5
20260506041521 -1 189 0.0 0.0 0.00 0.03 0.00 1 1014.5
20260506040028 -1 212 0.0 0.0 0.00 0.03 0.00 1 1014.4
20260506034512 -1 212 0.0 1.6 0.00 0.03 0.00 1 1014.4
20260506033006 -1 189 0.0 0.0 0.00 0.03 0.00 1 1014.4
20260506031503 -1 212 0.0 0.0 0.00 0.03 0.00 1 1014.3
20260506024554 0 189 0.0 1.6 0.00 0.03 0.00 1 1014.3
20260506023050 0 189 0.0 1.6 0.00 0.03 0.00 1 1014.4
20260506021555 0 189 0.0 1.6 0.00 0.03 0.00 1 1014.4
20260506020041 0 189 0.0 0.0 0.00 0.03 0.00 1 1014.5
20260506014536 0 189 0.0 0.0 0.00 0.03 0.00 1 1014.4
20260506013032 0 212 0.0 0.0 0.00 0.03 0.00 1 1014.5
20260506011531 0 212 0.0 1.6 0.00 0.03 0.00 1 1014.4
20260506010024 0 189 0.0 0.0 0.00 0.03 0.00 1 1014.4
20260506004518 0 189 0.0 0.0 0.00 0.03 0.00 1 1014.4
20260506003015 0 212 0.0 0.0 0.00 0.03 0.00 1 1014.5
20260506001513 0 212 0.0 0.0 0.00 0.03 0.00 1 1014.5
20260506000006 1 212 0.0 1.6 0.00 0.03 0.00 1 1014.5
20260505234505 1 212 0.0 0.0 0.00 0.03 0.00 4 1014.5
20260505233057 1 212 0.0 0.0 0.00 0.03 0.00 7 1014.5
20260505231554 1 189 0.0 1.6 0.00 0.03 0.00 7 1014.4
20260505230051 1 189 0.0 1.6 0.00 0.03 0.00 12 1014.4
20260505224545 2 189 0.0 1.6 0.00 0.03 0.00 14 1014.5
20260505223046 2 189 0.0 0.0 0.00 0.03 0.00 14 1014.4
20260505221536 2 189 0.0 1.6 0.00 0.03 0.00 15 1014.4
20260505220032 2 189 0.0 3.2 0.00 0.03 0.00 17 1014.4
20260505214534 2 189 0.0 1.6 0.00 0.03 0.03 22 1014.3
20260505213022 3 189 0.0 1.6 0.00 0.03 0.03 25 1014.4
20260505211534 3 189 0.0 3.2 0.00 0.03 0.03 26 1014.4
20260505210014 3 189 0.0 1.6 0.00 0.03 0.03 30 1014.5
20260505204509 3 189 0.0 6.4 0.00 0.03 0.03 33 1014.3
20260505203005 3 189 0.0 1.6 0.00 0.03 0.03 37 1014.3
20260505201501 4 189 0.0 3.2 0.00 0.03 0.03 39 1014.3
20260505200058 4 189 0.0 1.6 0.00 0.03 0.03 39 1014.4
20260505194552 5 188 0.0 6.4 0.00 0.03 0.03 39 1014.2
20260505193047 5 160 0.0 6.4 0.00 0.03 0.03 40 1014.2
20260505191550 5 212 0.0 6.4 0.00 0.03 0.03 40 1014.1
20260505190041 6 160 1.6 9.7 0.00 0.03 0.03 38 1014.0
20260505184545 6 212 1.6 6.4 0.00 0.03 0.03 38 1013.9
20260505183038 7 196 3.2 11.3 0.00 0.03 0.03 39 1013.7
20260505181526 7 212 3.2 14.5 0.00 0.03 0.03 39 1013.7